| time (UTC) | temp C | wind direction | speed KPH | gust KPH | rain 1hr cm | rain 24hr cm | rain mn cm | humidity % | barometer mb |
| 20260506160107 | 12 | 0 | 6.4 | 14.5 | 0.00 | 0.00 | 0.00 | 94 | 1020.2 |
| 20260506154555 | 11 | 0 | 0.0 | 3.2 | 0.00 | 0.00 | 0.00 | 94 | 1020.8 |
| 20260506153101 | 11 | 0 | 0.0 | 4.8 | 0.00 | 0.00 | 0.00 | 94 | 1021.0 |
| 20260506151550 | 12 | 0 | 0.0 | 4.8 | 0.00 | 0.00 | 0.00 | 93 | 1021.0 |
| 20260506150049 | 12 | 0 | 0.0 | 1.6 | 0.00 | 0.00 | 0.00 | 94 | 1020.7 |
| 20260506144551 | 12 | 257 | 0.0 | 3.2 | 0.00 | 0.00 | 0.00 | 94 | 1020.4 |
| 20260506143053 | 12 | 0 | 0.0 | 3.2 | 0.00 | 0.00 | 0.00 | 94 | 1020.0 |
| 20260506141606 | 11 | 267 | 0.0 | 4.8 | 0.00 | 0.00 | 0.00 | 94 | 1020.1 |
| 20260506140050 | 11 | 0 | 0.0 | 4.8 | 0.00 | 0.00 | 0.00 | 94 | 1019.9 |
| 20260506134549 | 11 | 0 | 0.0 | 6.4 | 0.00 | 0.00 | 0.00 | 94 | 1019.8 |
| 20260506133048 | 11 | 0 | 0.0 | 6.4 | 0.00 | 0.00 | 0.00 | 95 | 1019.5 |
| 20260506131555 | 11 | 0 | 0.0 | 4.8 | 0.00 | 0.00 | 0.00 | 95 | 1019.6 |
| 20260506130051 | 11 | 0 | 0.0 | 9.7 | 0.00 | 0.00 | 0.00 | 95 | 1019.6 |
| 20260506124553 | 11 | 0 | 0.0 | 1.6 | 0.00 | 0.00 | 0.00 | 95 | 1019.5 |
| 20260506123051 | 11 | 0 | 0.0 | 3.2 | 0.00 | 0.00 | 0.00 | 94 | 1019.5 |
| 20260506121559 | 12 | 0 | 0.0 | 4.8 | 0.00 | 0.00 | 0.00 | 94 | 1019.5 |
| 20260506120118 | 12 | 0 | 0.0 | 4.8 | 0.00 | 0.00 | 0.00 | 95 | 1019.1 |
| 20260506114550 | 12 | 0 | 0.0 | 0.0 | 0.00 | 0.00 | 0.00 | 96 | 1019.1 |
| 20260506113059 | 12 | 0 | 0.0 | 0.0 | 0.00 | 0.00 | 0.00 | 95 | 1018.9 |
| 20260506111552 | 12 | 0 | 0.0 | 0.0 | 0.00 | 0.00 | 0.00 | 95 | 1018.6 |
| 20260506110056 | 12 | 0 | 0.0 | 0.0 | 0.00 | 0.00 | 0.00 | 95 | 1018.4 |
| 20260506104554 | 12 | 0 | 0.0 | 0.0 | 0.00 | 0.00 | 0.00 | 95 | 1018.3 |
| 20260506103055 | 12 | 0 | 0.0 | 0.0 | 0.00 | 0.00 | 0.00 | 95 | 1018.0 |
| 20260506101554 | 12 | 0 | 0.0 | 3.2 | 0.00 | 0.00 | 0.00 | 95 | 1017.9 |
| 20260506100056 | 12 | 0 | 0.0 | 1.6 | 0.00 | 0.00 | 0.00 | 95 | 1017.9 |
| 20260506094553 | 12 | 0 | 0.0 | 1.6 | 0.00 | 0.00 | 0.00 | 95 | 1018.1 |
| 20260506093055 | 12 | 0 | 0.0 | 0.0 | 0.00 | 0.00 | 0.00 | 95 | 1017.9 |
| 20260506091550 | 12 | 0 | 0.0 | 0.0 | 0.00 | 0.00 | 0.00 | 95 | 1018.0 |
| 20260506090053 | 12 | 0 | 0.0 | 0.0 | 0.00 | 0.00 | 0.00 | 94 | 1017.9 |
| 20260506084553 | 12 | 0 | 0.0 | 1.6 | 0.00 | 0.00 | 0.00 | 94 | 1017.9 |
| 20260506083055 | 12 | 0 | 0.0 | 1.6 | 0.00 | 0.00 | 0.00 | 94 | 1017.9 |
| 20260506081552 | 12 | 0 | 0.0 | 1.6 | 0.00 | 0.00 | 0.00 | 94 | 1017.8 |
| 20260506073059 | 12 | 0 | 0.0 | 1.6 | 0.00 | 0.00 | 0.00 | 94 | 1017.6 |
| 20260506071554 | 12 | 0 | 0.0 | 1.6 | 0.00 | 0.00 | 0.00 | 94 | 1017.5 |
| 20260506070114 | 12 | 0 | 0.0 | 1.6 | 0.00 | 0.00 | 0.00 | 94 | 1017.4 |
| 20260506061551 | 12 | 0 | 0.0 | 3.2 | 0.00 | 0.00 | 0.00 | 93 | 1017.1 |
| 20260506050112 | 12 | 286 | 0.0 | 1.6 | 0.00 | 0.00 | 0.00 | 93 | 1016.9 |
| 20260506044601 | 13 | 0 | 0.0 | 0.0 | 0.00 | 0.00 | 0.00 | 93 | 1016.8 |
| 20260506043052 | 13 | 0 | 0.0 | 0.0 | 0.00 | 0.00 | 0.00 | 92 | 1016.8 |
| 20260506041555 | 13 | 0 | 0.0 | 1.6 | 0.00 | 0.00 | 0.00 | 92 | 1016.6 |
| 20260506040100 | 13 | 0 | 0.0 | 0.0 | 0.00 | 0.00 | 0.00 | 91 | 1016.4 |
| 20260506034551 | 13 | 0 | 0.0 | 0.0 | 0.00 | 0.00 | 0.00 | 90 | 1016.3 |
| 20260506033049 | 13 | 0 | 0.0 | 0.0 | 0.00 | 0.00 | 0.00 | 90 | 1016.2 |
| 20260506031559 | 14 | 0 | 0.0 | 0.0 | 0.00 | 0.00 | 0.00 | 88 | 1015.9 |
| 20260506030111 | 14 | 0 | 0.0 | 0.0 | 0.00 | 0.00 | 0.00 | 87 | 1015.7 |
| 20260506024552 | 14 | 0 | 0.0 | 0.0 | 0.00 | 0.00 | 0.00 | 86 | 1015.8 |
| 20260506023056 | 14 | 0 | 0.0 | 0.0 | 0.00 | 0.00 | 0.00 | 86 | 1015.5 |
| 20260506021548 | 14 | 0 | 0.0 | 0.0 | 0.00 | 0.00 | 0.00 | 85 | 1015.6 |
| 20260506020051 | 14 | 0 | 0.0 | 3.2 | 0.00 | 0.00 | 0.00 | 84 | 1015.7 |
| 20260506014555 | 14 | 0 | 0.0 | 1.6 | 0.00 | 0.00 | 0.00 | 83 | 1015.6 |
| 20260506013051 | 15 | 0 | 0.0 | 3.2 | 0.00 | 0.00 | 0.00 | 84 | 1015.5 |
| 20260506011558 | 15 | 0 | 0.0 | 3.2 | 0.00 | 0.00 | 0.00 | 83 | 1015.5 |
| 20260506010058 | 15 | 0 | 0.0 | 1.6 | 0.00 | 0.00 | 0.00 | 83 | 1015.4 |
| 20260506004625 | 15 | 0 | 0.0 | 4.8 | 0.00 | 0.00 | 0.00 | 83 | 1015.5 |
| 20260506003051 | 15 | 0 | 0.0 | 4.8 | 0.00 | 0.00 | 0.00 | 84 | 1015.6 |
| 20260506001556 | 15 | 0 | 0.0 | 3.2 | 0.00 | 0.00 | 0.00 | 83 | 1015.6 |
| 20260506000054 | 15 | 0 | 0.0 | 3.2 | 0.00 | 0.00 | 0.00 | 83 | 1015.9 |
| 20260505234612 | 15 | 277 | 0.0 | 6.4 | 0.00 | 0.00 | 0.00 | 82 | 1016.0 |
| 20260505233048 | 15 | 0 | 0.0 | 3.2 | 0.00 | 0.00 | 0.00 | 80 | 1016.0 |
| 20260505231552 | 16 | 0 | 1.6 | 11.3 | 0.00 | 0.00 | 0.00 | 79 | 1016.0 |
| 20260505230052 | 16 | 261 | 1.6 | 8.0 | 0.00 | 0.00 | 0.00 | 82 | 1016.0 |
| 20260505224552 | 16 | 189 | 0.0 | 6.4 | 0.00 | 0.00 | 0.00 | 80 | 1016.2 |
| 20260505223102 | 16 | 281 | 1.6 | 4.8 | 0.00 | 0.00 | 0.00 | 80 | 1016.1 |
| 20260505221608 | 15 | 0 | 0.0 | 1.6 | 0.00 | 0.00 | 0.00 | 81 | 1016.3 |
| 20260505220124 | 15 | 0 | 0.0 | 3.2 | 0.00 | 0.00 | 0.00 | 82 | 1016.3 |
| 20260505214614 | 15 | 332 | 0.0 | 6.4 | 0.00 | 0.00 | 0.00 | 81 | 1016.2 |
| 20260505213055 | 15 | 299 | 0.0 | 11.3 | 0.00 | 0.00 | 0.00 | 81 | 1016.2 |
| 20260505211612 | 16 | 259 | 0.0 | 8.0 | 0.00 | 0.00 | 0.00 | 79 | 1016.4 |
| 20260505210054 | 15 | 0 | 0.0 | 4.8 | 0.00 | 0.00 | 0.00 | 81 | 1016.5 |
| 20260505204550 | 15 | 245 | 1.6 | 8.0 | 0.00 | 0.00 | 0.00 | 80 | 1016.6 |
| 20260505203052 | 15 | 0 | 0.0 | 1.6 | 0.00 | 0.00 | 0.00 | 84 | 1016.6 |
| 20260505201602 | 14 | 0 | 0.0 | 4.8 | 0.00 | 0.00 | 0.00 | 84 | 1016.8 |
| 20260505194604 | 13 | 0 | 0.0 | 3.2 | 0.00 | 0.00 | 0.00 | 87 | 1016.8 |
| 20260505193056 | 13 | 0 | 0.0 | 6.4 | 0.00 | 0.00 | 0.00 | 86 | 1016.8 |
| 20260505191555 | 13 | 0 | 0.0 | 3.2 | 0.00 | 0.00 | 0.00 | 86 | 1017.0 |
| 20260505190100 | 13 | 254 | 0.0 | 6.4 | 0.00 | 0.00 | 0.00 | 88 | 1016.8 |
| 20260505184556 | 13 | 240 | 0.0 | 3.2 | 0.00 | 0.00 | 0.00 | 87 | 1016.9 |
| 20260505183102 | 12 | 0 | 0.0 | 3.2 | 0.00 | 0.00 | 0.00 | 88 | 1016.9 |
| 20260505181556 | 12 | 0 | 0.0 | 1.6 | 0.00 | 0.00 | 0.00 | 89 | 1016.8 |
| 20260505180053 | 12 | 0 | 0.0 | 1.6 | 0.00 | 0.00 | 0.00 | 91 | 1016.8 |
| 20260505174553 | 12 | 0 | 0.0 | 4.8 | 0.00 | 0.00 | 0.00 | 91 | 1016.7 |
| 20260505173053 | 12 | 0 | 0.0 | 1.6 | 0.00 | 0.00 | 0.00 | 92 | 1016.7 |
| 20260505171550 | 11 | 0 | 0.0 | 4.8 | 0.00 | 0.00 | 0.00 | 93 | 1016.5 |
| 20260505170056 | 11 | 0 | 0.0 | 3.2 | 0.00 | 0.00 | 0.00 | 92 | 1016.6 |
| 20260505164609 | 11 | 0 | 0.0 | 1.6 | 0.00 | 0.00 | 0.00 | 94 | 1016.4 |
| 20260505163104 | 11 | 0 | 0.0 | 3.2 | 0.00 | 0.00 | 0.00 | 94 | 1016.4 |
| 20260505161601 | 11 | 0 | 0.0 | 6.4 | 0.00 | 0.00 | 0.00 | 95 | 1016.5 |